STARLINK-30287, 57709

Orbit data source: Space-Track

STARLINK-30287, 57709 is a payload satellite owned by SpaceX/Seattle (US) in LEO that was launched on Sun, 27 Aug 2023 UTC via an FALCON 9 launch vehicle from the Air Force Eastern Test Range (AFETR). Payload-class satellites include a variety of spacecraft equipped with specific instruments for various scientific and technological missions. These include communications satellites like Starlink; space stations such as the ISS; scientific satellites like the Hubble; Earth observation satellites from companies like Planet Labs, Umbra, and HawkEye 360; GPS; miniature CubeSats for education and research; and military/defense satellites.

Loading next visibility...
Identifier
57709, 2023-129M
Orbit
LEO
Country
Flag of USUS
Related business
Manufacturer
SpaceX/Seattle
Mission
Operational Commercial Communications
Bus & Motor
STARLINK V2M, Unknown motor
Mass
730 kg wet, ~700 kg dry
Launch date (UTC)
2023-08-27 (3 years ago)
Launch vehicle
FALCON 9
Launch site
Air Force Eastern Test Range (AFETR)
Object type
Payload
Rocket body
Debris
Shape & HBR
Box + 2 Pan, 17.7 m
Radar Cross Section
33.884 m², Large (>1 m²)

Expand to show TLE details & history
Last TLE update: 3 days ago

TLE from 3 days ago
0 STARLINK-30287
1 57709U 23129M   26170.75025446  .00000838  00000-0  39959-4 0  9992
2 57709  43.0018 261.3342 0001064 268.3126  91.7604 15.27576127156299
Epoch: 2026-06-19T18:00Z
TLE epoch observation values (Epoch: 2026-06-19T18:00:21.985Z)
Latitude
Longitude
83.26785°
Altitude
482.859 km
Speed
7.626 km/s
True Right ascension
17h 25m 20s
True Declination
0° 00' 00"
Sunlit
Object was in full shadow at epoch
Visualization orbit readout
Latitude
Unknown
Longitude
Unknown
Altitude
Unknown
Speed
Unknown
Apparent Right ascension
Unknown
Apparent Declination
Unknown
Sunlit
N/A
Visualization observer readout
Local Sidereal Time
21:26:59
Azimuth
Unknown
Elevation
Unknown
Doppler factor
Unknown
Orbital elements
Apogee altitude
485.736 km
Perigee altitude
484.275 km
Semi-major axis
6,863.143 km
Eccentricity
0.00011
Inclination
43.0018°
RAAN
261.3342°
Arg. of periapsis
268.3126°
True anomaly
91.77259°
Mean anomaly
91.7604°
Eccentric anomaly
91.76649°
Mean motion
3.81732 °/min
Orbital period
94.31 mins
BSTAR
0.000039959
Loading maneuver chart data...
Computing Atmospheric mass density...
Loading historical data...
Loading historical data...
Loading historical data...
Loading historical data...
Loading historical data...
Loading historical data...
Loading historical data...

Documentation

Showing up to 5 results
|